Year,Month,Day,Hour,Minute,Value (Times are PST for temperature in C)
2017,06,24,00,00,13.90
2017,06,24,00,01,13.90
2017,06,24,00,02,13.80
2017,06,24,00,03,13.80
2017,06,24,00,04,13.70
2017,06,24,00,05,13.70
2017,06,24,00,06,13.70
2017,06,24,00,07,13.70
2017,06,24,00,08,13.70
2017,06,24,00,09,13.70
2017,06,24,00,10,13.60
2017,06,24,00,11,13.60
2017,06,24,00,12,13.60
2017,06,24,00,13,13.60
2017,06,24,00,14,13.60
2017,06,24,00,15,13.70
2017,06,24,00,16,13.70
2017,06,24,00,17,13.70
2017,06,24,00,18,13.70
2017,06,24,00,19,13.70
2017,06,24,00,20,13.70
2017,06,24,00,21,13.70
2017,06,24,00,22,13.70
2017,06,24,00,23,13.80
2017,06,24,00,24,13.80
2017,06,24,00,25,13.80
2017,06,24,00,26,13.90
2017,06,24,00,27,13.90
2017,06,24,00,28,13.90
2017,06,24,00,29,13.90
2017,06,24,00,30,13.90
2017,06,24,00,31,14.00
2017,06,24,00,32,14.10
2017,06,24,00,33,14.10
2017,06,24,00,34,14.10
2017,06,24,00,35,14.20
2017,06,24,00,36,14.20
2017,06,24,00,37,14.20
2017,06,24,00,38,14.30
2017,06,24,00,39,14.30
2017,06,24,00,40,14.30
2017,06,24,00,41,14.30
2017,06,24,00,42,14.30
2017,06,24,00,43,14.30
2017,06,24,00,44,14.30
2017,06,24,00,45,14.30
2017,06,24,00,46,14.30
2017,06,24,00,47,14.30
2017,06,24,00,48,14.30
2017,06,24,00,49,14.30
2017,06,24,00,50,14.40
2017,06,24,00,51,14.40
2017,06,24,00,52,14.50
2017,06,24,00,53,14.50
2017,06,24,00,54,14.60
2017,06,24,00,55,14.70
2017,06,24,00,56,14.80
2017,06,24,00,57,14.80
2017,06,24,00,58,14.90
2017,06,24,00,59,15.00
2017,06,24,01,00,15.10
2017,06,24,01,01,15.20
2017,06,24,01,02,15.20
2017,06,24,01,03,15.20
2017,06,24,01,04,15.20
2017,06,24,01,05,15.30
2017,06,24,01,06,15.30
2017,06,24,01,07,15.30
2017,06,24,01,08,15.30
2017,06,24,01,09,15.30
2017,06,24,01,10,15.20
2017,06,24,01,11,15.20
2017,06,24,01,12,15.20
2017,06,24,01,13,15.20
2017,06,24,01,14,15.20
2017,06,24,01,15,15.20
2017,06,24,01,16,15.20
2017,06,24,01,17,15.10
2017,06,24,01,18,15.10
2017,06,24,01,19,15.10
2017,06,24,01,20,15.10
2017,06,24,01,21,15.10
2017,06,24,01,22,15.10
2017,06,24,01,23,15.10
2017,06,24,01,24,15.00
2017,06,24,01,25,15.00
2017,06,24,01,26,15.00
2017,06,24,01,27,15.00
2017,06,24,01,28,14.90
2017,06,24,01,29,14.90
2017,06,24,01,30,14.90
2017,06,24,01,31,14.80
2017,06,24,01,32,14.70
2017,06,24,01,33,14.60
2017,06,24,01,34,14.50
2017,06,24,01,35,14.40
2017,06,24,01,36,14.30
2017,06,24,01,37,14.20
2017,06,24,01,38,14.20
2017,06,24,01,39,14.10
2017,06,24,01,40,14.10
2017,06,24,01,41,14.10
2017,06,24,01,42,14.10
2017,06,24,01,43,14.00
2017,06,24,01,44,14.00
2017,06,24,01,45,14.00
2017,06,24,01,46,14.00
2017,06,24,01,47,14.00
2017,06,24,01,48,13.90
2017,06,24,01,49,13.90
2017,06,24,01,50,13.90
2017,06,24,01,51,13.90
2017,06,24,01,52,13.90
2017,06,24,01,53,13.90
2017,06,24,01,54,13.80
2017,06,24,01,55,13.80
2017,06,24,01,56,13.80
2017,06,24,01,57,13.80
2017,06,24,01,58,13.80
2017,06,24,01,59,13.80
2017,06,24,02,00,13.80
2017,06,24,02,01,13.80
2017,06,24,02,02,13.80
2017,06,24,02,03,13.80
2017,06,24,02,04,13.80
2017,06,24,02,05,13.80
2017,06,24,02,06,13.80
2017,06,24,02,07,13.70
2017,06,24,02,08,13.70
2017,06,24,02,09,13.80
2017,06,24,02,10,13.80
2017,06,24,02,11,13.80
2017,06,24,02,12,13.90
2017,06,24,02,13,14.00
2017,06,24,02,14,14.00
2017,06,24,02,15,14.10
2017,06,24,02,16,14.10
2017,06,24,02,17,14.10
2017,06,24,02,18,14.10
2017,06,24,02,19,14.10
2017,06,24,02,20,14.10
2017,06,24,02,21,14.10
2017,06,24,02,22,14.10
2017,06,24,02,23,14.10
2017,06,24,02,24,14.10
2017,06,24,02,25,14.10
2017,06,24,02,26,14.10
2017,06,24,02,27,14.10
2017,06,24,02,28,14.10
2017,06,24,02,29,14.10
2017,06,24,02,30,14.10
2017,06,24,02,31,14.10
2017,06,24,02,32,14.00
2017,06,24,02,33,13.90
2017,06,24,02,34,13.90
2017,06,24,02,35,14.00
2017,06,24,02,36,14.00
2017,06,24,02,37,14.10
2017,06,24,02,38,14.10
2017,06,24,02,39,14.10
2017,06,24,02,40,14.10
2017,06,24,02,41,14.00
2017,06,24,02,42,14.00
2017,06,24,02,43,13.90
2017,06,24,02,44,13.90
2017,06,24,02,45,13.80
2017,06,24,02,46,13.80
2017,06,24,02,47,13.80
2017,06,24,02,48,13.80
2017,06,24,02,49,13.70
2017,06,24,02,50,13.70
2017,06,24,02,51,13.70
2017,06,24,02,52,13.70
2017,06,24,02,53,13.70
2017,06,24,02,54,13.70
2017,06,24,02,55,13.70
2017,06,24,02,56,13.60
2017,06,24,02,57,13.60
2017,06,24,02,58,13.60
2017,06,24,02,59,13.60
2017,06,24,03,00,13.60
2017,06,24,03,01,13.60
2017,06,24,03,02,13.60
2017,06,24,03,03,13.50
2017,06,24,03,04,13.50
2017,06,24,03,05,13.50
2017,06,24,03,06,13.50
2017,06,24,03,07,13.40
2017,06,24,03,08,13.40
2017,06,24,03,09,13.40
2017,06,24,03,10,13.40
2017,06,24,03,11,13.40
2017,06,24,03,12,13.40
2017,06,24,03,13,13.40
2017,06,24,03,14,13.40
2017,06,24,03,15,13.40
2017,06,24,03,16,13.30
2017,06,24,03,17,13.30
2017,06,24,03,18,13.30
2017,06,24,03,19,13.30
2017,06,24,03,20,13.30
2017,06,24,03,21,13.30
2017,06,24,03,22,13.30
2017,06,24,03,23,13.30
2017,06,24,03,24,13.30
2017,06,24,03,25,13.20
2017,06,24,03,26,13.20
2017,06,24,03,27,13.20
2017,06,24,03,28,13.20
2017,06,24,03,29,13.20
2017,06,24,03,30,13.20
2017,06,24,03,31,13.20
2017,06,24,03,32,13.30
2017,06,24,03,33,13.30
2017,06,24,03,34,13.30
2017,06,24,03,35,13.40
2017,06,24,03,36,13.40
2017,06,24,03,37,13.40
2017,06,24,03,38,13.50
2017,06,24,03,39,13.50
2017,06,24,03,40,13.60
2017,06,24,03,41,13.60
2017,06,24,03,42,13.60
2017,06,24,03,43,13.60
2017,06,24,03,44,13.60
2017,06,24,03,45,13.60
2017,06,24,03,46,13.70
2017,06,24,03,47,13.70
2017,06,24,03,48,13.70
2017,06,24,03,49,13.70
2017,06,24,03,50,13.70
2017,06,24,03,51,13.70
2017,06,24,03,52,13.70
2017,06,24,03,53,13.70
2017,06,24,03,54,13.70
2017,06,24,03,55,13.70
2017,06,24,03,56,13.80
2017,06,24,03,57,13.80
2017,06,24,03,58,13.80
2017,06,24,03,59,13.80
2017,06,24,04,00,13.80
2017,06,24,04,01,13.80
2017,06,24,04,02,13.80
2017,06,24,04,03,13.80
2017,06,24,04,04,13.80
2017,06,24,04,05,13.80
2017,06,24,04,06,13.80
2017,06,24,04,07,13.80
2017,06,24,04,08,13.80
2017,06,24,04,09,13.80
2017,06,24,04,10,13.80
2017,06,24,04,11,13.90
2017,06,24,04,12,13.90
2017,06,24,04,13,13.90
2017,06,24,04,14,13.90
2017,06,24,04,15,13.90
2017,06,24,04,16,13.90
2017,06,24,04,17,13.90
2017,06,24,04,18,13.90
2017,06,24,04,19,14.00
2017,06,24,04,20,14.00
2017,06,24,04,21,14.10
2017,06,24,04,22,14.10
2017,06,24,04,23,14.10
2017,06,24,04,24,14.10
2017,06,24,04,25,14.10
2017,06,24,04,26,14.20
2017,06,24,04,27,14.10
2017,06,24,04,28,14.10
2017,06,24,04,29,14.10
2017,06,24,04,30,14.10
2017,06,24,04,31,14.10
2017,06,24,04,32,14.10
2017,06,24,04,33,14.10
2017,06,24,04,34,14.10
2017,06,24,04,35,14.10
2017,06,24,04,36,14.10
2017,06,24,04,37,14.10
2017,06,24,04,38,14.10
2017,06,24,04,39,14.10
2017,06,24,04,40,14.10
2017,06,24,04,41,14.10
2017,06,24,04,42,14.10
2017,06,24,04,43,14.10
2017,06,24,04,44,14.10
2017,06,24,04,45,14.10
2017,06,24,04,46,14.10
2017,06,24,04,47,14.10
2017,06,24,04,48,14.10
2017,06,24,04,49,14.10
2017,06,24,04,50,14.00
2017,06,24,04,51,14.00
2017,06,24,04,52,14.00
2017,06,24,04,53,14.00
2017,06,24,04,54,14.00
2017,06,24,04,55,13.90
2017,06,24,04,56,13.90
2017,06,24,04,57,13.90
2017,06,24,04,58,13.90
2017,06,24,04,59,13.90
2017,06,24,05,00,13.80
2017,06,24,05,01,13.80
2017,06,24,05,02,13.80
2017,06,24,05,03,13.80
2017,06,24,05,04,13.80
2017,06,24,05,05,13.70
2017,06,24,05,06,13.70
2017,06,24,05,07,13.70
2017,06,24,05,08,13.70
2017,06,24,05,09,13.70
2017,06,24,05,10,13.70
2017,06,24,05,11,13.70
2017,06,24,05,12,13.70
2017,06,24,05,13,13.70
2017,06,24,05,14,13.80
2017,06,24,05,15,13.80
2017,06,24,05,16,13.80
2017,06,24,05,17,13.80
2017,06,24,05,18,13.80
2017,06,24,05,19,13.90
2017,06,24,05,20,13.90
2017,06,24,05,21,13.90
2017,06,24,05,22,13.90
2017,06,24,05,23,13.90
2017,06,24,05,24,13.90
2017,06,24,05,25,13.90
2017,06,24,05,26,13.90
2017,06,24,05,27,14.00
2017,06,24,05,28,14.00
2017,06,24,05,29,14.00
2017,06,24,05,30,14.00
2017,06,24,05,31,14.00
2017,06,24,05,32,14.00
2017,06,24,05,33,14.00
2017,06,24,05,34,14.10
2017,06,24,05,35,14.10
2017,06,24,05,36,14.10
2017,06,24,05,37,14.10
2017,06,24,05,38,14.10
2017,06,24,05,39,14.10
2017,06,24,05,40,14.10
2017,06,24,05,41,14.20
2017,06,24,05,42,14.20
2017,06,24,05,43,14.20
2017,06,24,05,44,14.20
2017,06,24,05,45,14.20
2017,06,24,05,46,14.20
2017,06,24,05,47,14.20
2017,06,24,05,48,14.20
2017,06,24,05,49,14.30
2017,06,24,05,50,14.30
2017,06,24,05,51,14.30
2017,06,24,05,52,14.30
2017,06,24,05,53,14.30
2017,06,24,05,54,14.30
2017,06,24,05,55,14.30
2017,06,24,05,56,14.30
2017,06,24,05,57,14.30
2017,06,24,05,58,14.30
2017,06,24,05,59,14.30
2017,06,24,06,00,14.30
2017,06,24,06,01,14.40
2017,06,24,06,02,14.40
2017,06,24,06,03,14.40
2017,06,24,06,04,14.40
2017,06,24,06,05,14.40
2017,06,24,06,06,14.40
2017,06,24,06,07,14.40
2017,06,24,06,08,14.40
2017,06,24,06,09,14.40
2017,06,24,06,10,14.40
2017,06,24,06,11,14.40
2017,06,24,06,12,14.40
2017,06,24,06,13,14.40
2017,06,24,06,14,14.40
2017,06,24,06,15,14.40
2017,06,24,06,16,14.40
2017,06,24,06,17,14.40
2017,06,24,06,18,14.40
2017,06,24,06,19,14.40
2017,06,24,06,20,14.40
2017,06,24,06,21,14.40
2017,06,24,06,22,14.40
2017,06,24,06,23,14.40
2017,06,24,06,24,14.40
2017,06,24,06,25,14.40
2017,06,24,06,26,14.40
2017,06,24,06,27,14.40
2017,06,24,06,28,14.40
2017,06,24,06,29,14.50
2017,06,24,06,30,14.50
2017,06,24,06,31,14.50
2017,06,24,06,32,14.50
2017,06,24,06,33,14.60
2017,06,24,06,34,14.60
2017,06,24,06,35,14.60
2017,06,24,06,36,14.70
2017,06,24,06,37,14.70
2017,06,24,06,38,14.80
2017,06,24,06,39,14.80
2017,06,24,06,40,14.90
2017,06,24,06,41,14.90
2017,06,24,06,42,15.00
2017,06,24,06,43,15.00
2017,06,24,06,44,15.10
2017,06,24,06,45,15.10
2017,06,24,06,46,15.20
2017,06,24,06,47,15.20
2017,06,24,06,48,15.20
2017,06,24,06,49,15.20
2017,06,24,06,50,15.20
2017,06,24,06,51,15.20
2017,06,24,06,52,15.20
2017,06,24,06,53,15.20
2017,06,24,06,54,15.20
2017,06,24,06,55,15.20
2017,06,24,06,56,15.20
2017,06,24,06,57,15.10
2017,06,24,06,58,15.00
2017,06,24,06,59,15.00
2017,06,24,07,00,15.00
2017,06,24,07,01,15.00
2017,06,24,07,02,15.00
2017,06,24,07,03,15.10
2017,06,24,07,04,15.10
2017,06,24,07,05,15.10
2017,06,24,07,06,15.10
2017,06,24,07,07,15.10
2017,06,24,07,08,15.10
2017,06,24,07,09,15.20
2017,06,24,07,10,15.20
2017,06,24,07,11,15.30
2017,06,24,07,12,15.30
2017,06,24,07,13,15.40
2017,06,24,07,14,15.40
2017,06,24,07,15,15.40
2017,06,24,07,16,15.50
2017,06,24,07,17,15.60
2017,06,24,07,18,15.60
2017,06,24,07,19,15.70
2017,06,24,07,20,15.70
2017,06,24,07,21,15.70
2017,06,24,07,22,15.80
2017,06,24,07,23,15.80
2017,06,24,07,24,15.90
2017,06,24,07,25,16.00
2017,06,24,07,26,16.10
2017,06,24,07,27,16.20
2017,06,24,07,28,16.30
2017,06,24,07,29,16.30
2017,06,24,07,30,16.30
2017,06,24,07,31,16.40
2017,06,24,07,32,16.40
2017,06,24,07,33,16.40
2017,06,24,07,34,16.40
2017,06,24,07,35,16.40
2017,06,24,07,36,16.40
2017,06,24,07,37,16.40
2017,06,24,07,38,16.40
2017,06,24,07,39,16.40
2017,06,24,07,40,16.50
2017,06,24,07,41,16.80
2017,06,24,07,42,16.80
2017,06,24,07,43,16.90
2017,06,24,07,44,17.00
2017,06,24,07,45,17.10
2017,06,24,07,46,17.10
2017,06,24,07,47,17.20
2017,06,24,07,48,17.30
2017,06,24,07,49,17.40
2017,06,24,07,50,17.50
2017,06,24,07,51,17.60
2017,06,24,07,52,17.60
2017,06,24,07,53,17.70
2017,06,24,07,54,17.80
2017,06,24,07,55,17.80
2017,06,24,07,56,17.80
2017,06,24,07,57,17.90
2017,06,24,07,58,17.90
2017,06,24,07,59,18.00
2017,06,24,08,00,18.00
2017,06,24,08,01,18.10
2017,06,24,08,02,18.10
2017,06,24,08,03,18.20
2017,06,24,08,04,18.30
2017,06,24,08,05,18.30
2017,06,24,08,06,18.40
2017,06,24,08,07,18.40
2017,06,24,08,08,18.40
2017,06,24,08,09,18.50
2017,06,24,08,10,18.50
2017,06,24,08,11,18.60
2017,06,24,08,12,18.70
2017,06,24,08,13,18.70
2017,06,24,08,14,18.80
2017,06,24,08,15,18.90
2017,06,24,08,16,19.00
2017,06,24,08,17,19.10
2017,06,24,08,18,19.20
2017,06,24,08,19,19.30
2017,06,24,08,20,19.30
2017,06,24,08,21,19.30
2017,06,24,08,22,19.40
2017,06,24,08,23,19.40
2017,06,24,08,24,19.30
2017,06,24,08,25,19.30
2017,06,24,08,26,19.30
2017,06,24,08,27,19.20
2017,06,24,08,28,19.20
2017,06,24,08,29,19.20
2017,06,24,08,30,19.10
2017,06,24,08,31,19.10
2017,06,24,08,32,19.10
2017,06,24,08,33,19.10
2017,06,24,08,34,19.00
2017,06,24,08,35,19.00
2017,06,24,08,36,19.00
2017,06,24,08,37,19.00
2017,06,24,08,38,19.00
2017,06,24,08,39,19.00
2017,06,24,08,40,19.00
2017,06,24,08,41,19.00
2017,06,24,08,42,19.10
2017,06,24,08,43,19.10
2017,06,24,08,44,19.10
2017,06,24,08,45,19.10
2017,06,24,08,46,19.10
2017,06,24,08,47,19.10
2017,06,24,08,48,19.10
2017,06,24,08,49,19.10
2017,06,24,08,50,19.10
2017,06,24,08,51,19.10
2017,06,24,08,52,19.10
2017,06,24,08,53,19.00
2017,06,24,08,54,19.00
2017,06,24,08,55,18.90
2017,06,24,08,56,18.90
2017,06,24,08,57,18.90
2017,06,24,08,58,19.00
2017,06,24,08,59,19.00
2017,06,24,09,00,19.10
2017,06,24,09,01,19.10
2017,06,24,09,02,19.10
2017,06,24,09,03,19.20
2017,06,24,09,04,19.20
2017,06,24,09,05,19.30
2017,06,24,09,06,19.30
2017,06,24,09,07,19.40
2017,06,24,09,08,19.50
2017,06,24,09,09,19.60
2017,06,24,09,10,19.60
2017,06,24,09,11,19.70
2017,06,24,09,12,19.80
2017,06,24,09,13,19.80
2017,06,24,09,14,19.90
2017,06,24,09,15,19.90
2017,06,24,09,16,19.90
2017,06,24,09,17,20.00
2017,06,24,09,18,20.00
2017,06,24,09,19,20.10
2017,06,24,09,20,20.10
2017,06,24,09,21,20.10
2017,06,24,09,22,20.20
2017,06,24,09,23,20.30
2017,06,24,09,24,20.30
2017,06,24,09,25,20.40
2017,06,24,09,26,20.40
2017,06,24,09,27,20.50
2017,06,24,09,28,20.50
2017,06,24,09,29,20.60
2017,06,24,09,30,20.60
2017,06,24,09,31,20.70
2017,06,24,09,32,20.70
2017,06,24,09,33,20.80
2017,06,24,09,34,20.80
2017,06,24,09,35,20.90
2017,06,24,09,36,20.90
2017,06,24,09,37,21.00
2017,06,24,09,38,21.00
2017,06,24,09,39,21.10
2017,06,24,09,40,21.10
2017,06,24,09,41,21.20
2017,06,24,09,42,21.20
2017,06,24,09,43,21.30
2017,06,24,09,44,21.30
2017,06,24,09,45,21.40
2017,06,24,09,46,21.40
2017,06,24,09,47,21.50
2017,06,24,09,48,21.60
2017,06,24,09,49,21.60
2017,06,24,09,50,21.70
2017,06,24,09,51,21.70
2017,06,24,09,52,21.80
2017,06,24,09,53,21.80
2017,06,24,09,54,21.90
2017,06,24,09,55,22.00
2017,06,24,09,56,22.10
2017,06,24,09,57,22.10
2017,06,24,09,58,22.20
2017,06,24,09,59,22.30
2017,06,24,10,00,22.40
2017,06,24,10,01,22.50
2017,06,24,10,02,22.60
2017,06,24,10,03,22.70
2017,06,24,10,04,22.70
2017,06,24,10,05,22.70
2017,06,24,10,06,22.80
2017,06,24,10,07,22.80
2017,06,24,10,08,22.80
2017,06,24,10,09,22.90
2017,06,24,10,10,22.90
2017,06,24,10,11,22.90
2017,06,24,10,12,23.00
2017,06,24,10,13,23.00
2017,06,24,10,14,23.10
2017,06,24,10,15,23.10
2017,06,24,10,16,23.10
2017,06,24,10,17,23.10
2017,06,24,10,18,23.20
2017,06,24,10,19,23.20
2017,06,24,10,20,23.30
2017,06,24,10,21,23.40
2017,06,24,10,22,23.50
2017,06,24,10,23,23.60
2017,06,24,10,24,23.70
2017,06,24,10,25,23.90
2017,06,24,10,26,23.90
2017,06,24,10,27,24.00
2017,06,24,10,28,24.00
2017,06,24,10,29,24.00
2017,06,24,10,30,24.00
2017,06,24,10,31,24.00
2017,06,24,10,32,24.00
2017,06,24,10,33,24.00
2017,06,24,10,34,24.00
2017,06,24,10,35,24.00
2017,06,24,10,36,24.10
2017,06,24,10,37,24.10
2017,06,24,10,38,24.20
2017,06,24,10,39,24.20
2017,06,24,10,40,24.20
2017,06,24,10,41,24.20
2017,06,24,10,42,24.00
2017,06,24,10,43,23.70
2017,06,24,10,44,23.40
2017,06,24,10,45,22.90
2017,06,24,10,46,22.50
2017,06,24,10,47,22.20
2017,06,24,10,48,22.00
2017,06,24,10,49,21.90
2017,06,24,10,50,21.80
2017,06,24,10,51,21.80
2017,06,24,10,52,21.80
2017,06,24,10,53,21.80
2017,06,24,10,54,21.80
2017,06,24,10,55,21.90
2017,06,24,10,56,21.80
2017,06,24,10,57,21.70
2017,06,24,10,58,21.50
2017,06,24,10,59,21.40
2017,06,24,11,00,21.30
2017,06,24,11,01,21.30
2017,06,24,11,02,21.20
2017,06,24,11,03,21.20
2017,06,24,11,04,21.20
2017,06,24,11,05,21.20
2017,06,24,11,06,21.30
2017,06,24,11,07,21.20
2017,06,24,11,08,21.20
2017,06,24,11,09,21.20
2017,06,24,11,10,21.20
2017,06,24,11,11,21.20
2017,06,24,11,12,21.20
2017,06,24,11,13,21.20
2017,06,24,11,14,21.30
2017,06,24,11,15,21.30
2017,06,24,11,16,21.30
2017,06,24,11,17,21.40
2017,06,24,11,18,21.40
2017,06,24,11,19,21.40
2017,06,24,11,20,21.40
2017,06,24,11,21,21.40
2017,06,24,11,22,21.40
2017,06,24,11,23,21.50
2017,06,24,11,24,21.50
2017,06,24,11,25,21.70
2017,06,24,11,26,21.80
2017,06,24,11,27,21.90
2017,06,24,11,28,22.00
2017,06,24,11,29,22.20
2017,06,24,11,30,22.30
2017,06,24,11,31,22.40
2017,06,24,11,32,22.50
2017,06,24,11,33,22.60
2017,06,24,11,34,22.70
2017,06,24,11,35,22.70
2017,06,24,11,36,22.70
2017,06,24,11,37,22.80
2017,06,24,11,38,22.80
2017,06,24,11,39,22.80
2017,06,24,11,40,22.80
2017,06,24,11,41,22.90
2017,06,24,11,42,23.00
2017,06,24,11,43,23.10
2017,06,24,11,44,23.10
2017,06,24,11,45,23.10
2017,06,24,11,46,23.20
2017,06,24,11,47,23.20
2017,06,24,11,48,23.30
2017,06,24,11,49,23.40
2017,06,24,11,50,23.60
2017,06,24,11,51,23.60
2017,06,24,11,52,23.60
2017,06,24,11,53,23.70
2017,06,24,11,54,23.70
2017,06,24,11,55,23.80
2017,06,24,11,56,23.80
2017,06,24,11,57,23.80
2017,06,24,11,58,23.80
2017,06,24,11,59,23.80
2017,06,24,12,00,23.80
2017,06,24,12,01,23.70
2017,06,24,12,02,23.70
2017,06,24,12,03,23.70
2017,06,24,12,04,23.70
2017,06,24,12,05,23.70
2017,06,24,12,06,23.80
2017,06,24,12,07,23.90
2017,06,24,12,08,23.90
2017,06,24,12,09,23.90
2017,06,24,12,10,23.80
2017,06,24,12,11,23.90
2017,06,24,12,12,23.90
2017,06,24,12,13,23.90
2017,06,24,12,14,23.90
2017,06,24,12,15,23.80
2017,06,24,12,16,23.80
2017,06,24,12,17,23.90
2017,06,24,12,18,23.90
2017,06,24,12,19,24.00
2017,06,24,12,20,24.00
2017,06,24,12,21,24.10
2017,06,24,12,22,24.10
2017,06,24,12,23,24.10
2017,06,24,12,24,24.10
2017,06,24,12,25,24.20
2017,06,24,12,26,24.20
2017,06,24,12,27,24.20
2017,06,24,12,28,24.20
2017,06,24,12,29,24.20
2017,06,24,12,30,24.20
2017,06,24,12,31,24.30
2017,06,24,12,32,24.30
2017,06,24,12,33,24.30
2017,06,24,12,34,24.40
2017,06,24,12,35,24.40
2017,06,24,12,36,24.40
2017,06,24,12,37,24.40
2017,06,24,12,38,24.50
2017,06,24,12,39,24.60
2017,06,24,12,40,24.70
2017,06,24,12,41,24.80
2017,06,24,12,42,24.80
2017,06,24,12,43,24.80
2017,06,24,12,44,24.80
2017,06,24,12,45,24.70
2017,06,24,12,46,24.70
2017,06,24,12,47,24.70
2017,06,24,12,48,24.80
2017,06,24,12,49,24.80
2017,06,24,12,50,24.80
2017,06,24,12,51,24.80
2017,06,24,12,52,24.90
2017,06,24,12,53,24.90
2017,06,24,12,54,24.90
2017,06,24,12,55,24.90
2017,06,24,12,56,24.90
2017,06,24,12,57,24.90
2017,06,24,12,58,25.00
2017,06,24,12,59,25.00
2017,06,24,13,00,25.00
2017,06,24,13,01,25.00
2017,06,24,13,02,25.00
2017,06,24,13,03,25.00
2017,06,24,13,04,25.00
2017,06,24,13,05,25.00
2017,06,24,13,06,24.90
2017,06,24,13,07,24.90
2017,06,24,13,08,24.90
2017,06,24,13,09,24.80
2017,06,24,13,10,24.80
2017,06,24,13,11,24.80
2017,06,24,13,12,24.80
2017,06,24,13,13,24.80
2017,06,24,13,14,24.80
2017,06,24,13,15,24.80
2017,06,24,13,16,24.80
2017,06,24,13,17,24.90
2017,06,24,13,18,24.90
2017,06,24,13,19,24.90
2017,06,24,13,20,24.90
2017,06,24,13,21,24.90
2017,06,24,13,22,24.90
2017,06,24,13,23,24.90
2017,06,24,13,24,24.90
2017,06,24,13,25,24.90
2017,06,24,13,26,24.90
2017,06,24,13,27,24.90
2017,06,24,13,28,24.90
2017,06,24,13,29,24.90
2017,06,24,13,30,24.90
2017,06,24,13,31,24.90
2017,06,24,13,32,24.90
2017,06,24,13,33,24.90
2017,06,24,13,34,24.90
2017,06,24,13,35,25.00
2017,06,24,13,36,25.10
2017,06,24,13,37,25.10
2017,06,24,13,38,25.10
2017,06,24,13,39,25.10
2017,06,24,13,40,25.10
2017,06,24,13,41,25.10
2017,06,24,13,42,25.10
2017,06,24,13,43,25.20
2017,06,24,13,44,25.20
2017,06,24,13,45,25.30
2017,06,24,13,46,25.30
2017,06,24,13,47,25.30
2017,06,24,13,48,25.20
2017,06,24,13,49,25.10
2017,06,24,13,50,25.00
2017,06,24,13,51,25.00
2017,06,24,13,52,24.90
2017,06,24,13,53,24.90
2017,06,24,13,54,24.90
2017,06,24,13,55,24.90
2017,06,24,13,56,24.80
2017,06,24,13,57,24.80
2017,06,24,13,58,24.80
2017,06,24,13,59,24.80
2017,06,24,14,00,24.80
2017,06,24,14,01,24.80
2017,06,24,14,02,24.80
2017,06,24,14,03,24.70
2017,06,24,14,04,24.60
2017,06,24,14,05,24.60
2017,06,24,14,06,24.50
2017,06,24,14,07,24.50
2017,06,24,14,08,24.50
2017,06,24,14,09,24.40
2017,06,24,14,10,24.40
2017,06,24,14,11,24.40
2017,06,24,14,12,24.30
2017,06,24,14,13,24.30
2017,06,24,14,14,24.30
2017,06,24,14,15,24.40
2017,06,24,14,16,24.40
2017,06,24,14,17,24.40
2017,06,24,14,18,24.40
2017,06,24,14,19,24.40
2017,06,24,14,20,24.50
2017,06,24,14,21,24.50
2017,06,24,14,22,24.60
2017,06,24,14,23,24.60
2017,06,24,14,24,24.70
2017,06,24,14,25,24.70
2017,06,24,14,26,24.80
2017,06,24,14,27,24.80
2017,06,24,14,28,24.80
2017,06,24,14,29,24.80
2017,06,24,14,30,24.80
2017,06,24,14,31,24.90
2017,06,24,14,32,25.00
2017,06,24,14,33,25.10
2017,06,24,14,34,25.10
2017,06,24,14,35,25.10
2017,06,24,14,36,25.10
2017,06,24,14,37,25.20
2017,06,24,14,38,25.30
2017,06,24,14,39,25.30
2017,06,24,14,40,25.30
2017,06,24,14,41,25.30
2017,06,24,14,42,25.30
2017,06,24,14,43,25.30
2017,06,24,14,44,25.30
2017,06,24,14,45,25.30
2017,06,24,14,46,25.30
2017,06,24,14,47,25.20
2017,06,24,14,48,25.20
2017,06,24,14,49,25.20
2017,06,24,14,50,25.30
2017,06,24,14,51,25.30
2017,06,24,14,52,25.30
2017,06,24,14,53,25.20
2017,06,24,14,54,25.30
2017,06,24,14,55,25.30
2017,06,24,14,56,25.30
2017,06,24,14,57,25.30
2017,06,24,14,58,25.30
2017,06,24,14,59,25.20
2017,06,24,15,00,25.20
2017,06,24,15,01,25.30
2017,06,24,15,02,25.30
2017,06,24,15,03,25.30
2017,06,24,15,04,25.40
2017,06,24,15,05,25.40
2017,06,24,15,06,25.40
2017,06,24,15,07,25.40
2017,06,24,15,08,25.40
2017,06,24,15,09,25.40
2017,06,24,15,10,25.30
2017,06,24,15,11,25.20
2017,06,24,15,12,25.20
2017,06,24,15,13,25.20
2017,06,24,15,14,25.10
2017,06,24,15,15,25.10
2017,06,24,15,16,25.10
2017,06,24,15,17,25.00
2017,06,24,15,18,25.00
2017,06,24,15,19,25.00
2017,06,24,15,20,25.10
2017,06,24,15,21,25.10
2017,06,24,15,22,25.10
2017,06,24,15,23,25.00
2017,06,24,15,24,24.90
2017,06,24,15,25,24.90
2017,06,24,15,26,24.90
2017,06,24,15,27,24.90
2017,06,24,15,28,24.90
2017,06,24,15,29,25.00
2017,06,24,15,30,25.00
2017,06,24,15,31,25.00
2017,06,24,15,32,25.00
2017,06,24,15,33,25.00
2017,06,24,15,34,25.00
2017,06,24,15,35,25.00
2017,06,24,15,36,25.00
2017,06,24,15,37,25.00
2017,06,24,15,38,24.90
2017,06,24,15,39,24.80
2017,06,24,15,40,24.80
2017,06,24,15,41,24.70
2017,06,24,15,42,24.80
2017,06,24,15,43,24.80
2017,06,24,15,44,24.90
2017,06,24,15,45,24.90
2017,06,24,15,46,25.00
2017,06,24,15,47,25.00
2017,06,24,15,48,25.00
2017,06,24,15,49,25.10
2017,06,24,15,50,25.20
2017,06,24,15,51,25.30
2017,06,24,15,52,25.40
2017,06,24,15,53,25.40
2017,06,24,15,54,25.40
2017,06,24,15,55,25.40
2017,06,24,15,56,25.30
2017,06,24,15,57,25.20
2017,06,24,15,58,25.20
2017,06,24,15,59,25.10
2017,06,24,16,00,25.10
2017,06,24,16,01,25.10
2017,06,24,16,02,25.00
2017,06,24,16,03,25.00
2017,06,24,16,04,25.00
2017,06,24,16,05,25.10
2017,06,24,16,06,25.10
2017,06,24,16,07,25.20
2017,06,24,16,08,25.20
2017,06,24,16,09,25.20
2017,06,24,16,10,25.20
2017,06,24,16,11,25.20
2017,06,24,16,12,25.20
2017,06,24,16,13,25.20
2017,06,24,16,14,25.20
2017,06,24,16,15,25.30
2017,06,24,16,16,25.20
2017,06,24,16,17,25.20
2017,06,24,16,18,25.20
2017,06,24,16,19,25.20
2017,06,24,16,20,25.20
2017,06,24,16,21,25.20
2017,06,24,16,22,25.30
2017,06,24,16,23,25.40
2017,06,24,16,24,25.50
2017,06,24,16,25,25.60
2017,06,24,16,26,25.70
2017,06,24,16,27,25.80
2017,06,24,16,28,25.80
2017,06,24,16,29,25.80
2017,06,24,16,30,25.90
2017,06,24,16,31,25.90
2017,06,24,16,32,26.00
2017,06,24,16,33,26.00
2017,06,24,16,34,26.10
2017,06,24,16,35,26.10
2017,06,24,16,36,26.00
2017,06,24,16,37,25.90
2017,06,24,16,38,25.90
2017,06,24,16,39,25.80
2017,06,24,16,40,25.90
2017,06,24,16,41,26.00
2017,06,24,16,42,26.10
2017,06,24,16,43,26.10
2017,06,24,16,44,26.10
2017,06,24,16,45,26.10
2017,06,24,16,46,26.10
2017,06,24,16,47,26.10
2017,06,24,16,48,26.10
2017,06,24,16,49,26.10
2017,06,24,16,50,26.10
2017,06,24,16,51,26.00
2017,06,24,16,52,25.90
2017,06,24,16,53,25.80
2017,06,24,16,54,25.70
2017,06,24,16,55,25.60
2017,06,24,16,56,25.50
2017,06,24,16,57,25.40
2017,06,24,16,58,25.30
2017,06,24,16,59,25.30
2017,06,24,17,00,25.30
2017,06,24,17,01,25.40
2017,06,24,17,02,25.40
2017,06,24,17,03,25.40
2017,06,24,17,04,25.40
2017,06,24,17,05,25.40
2017,06,24,17,06,25.40
2017,06,24,17,07,25.50
2017,06,24,17,08,25.50
2017,06,24,17,09,25.60
2017,06,24,17,10,25.60
2017,06,24,17,11,25.60
2017,06,24,17,12,25.60
2017,06,24,17,13,25.70
2017,06,24,17,14,25.70
2017,06,24,17,15,25.60
2017,06,24,17,16,25.50
2017,06,24,17,17,25.40
2017,06,24,17,18,25.40
2017,06,24,17,19,25.30